RH
43 43 44 46 48 50 52 57 66 80 86 82 74 68 60 54 52 50 51 56 60 62 65 68 70 70 70 72 72 72 75 75 75 75 74 78 81 82 84 81 82 89 87 77 73 73 72 74 78 77 72 67 63 60 62 64 65 68 70 72 73 72 72
42 42 44 46 48 50 53 60 73 84 87 82 76 68 61 57 55 55 56 59 62 64 68 72 73 73 73 74 75 75 76 77 75 74 75 79 83 85 82 77 76 80 82 80 76 75 76 78 80 75 67 65 66 65 65 67 68 70 72 73 71 66 65
43 42 43 45 48 51 57 66 79 87 86 82 77 71 64 60 58 57 58 59 60 64 70 75 76 78 78 78 78 77 77 78 77 76 78 80 82 84 84 81 80 83 88 86 80 80 85 82 77 72 67 68 70 68 68 69 70 72 74 71 65 61 63
47 45 46 47 50 55 62 72 81 86 84 82 79 73 66 63 62 61 59 57 57 63 71 75 77 79 80 80 80 79 78 78 80 80 80 81 81 84 87 87 88 88 88 87 87 89 89 80 73 74 74 74 72 69 69 70 72 74 73 66 61 61 64
52 51 51 50 53 57 64 73 80 84 84 82 81 75 68 66 65 63 61 58 58 62 68 73 76 77 80 82 81 81 81 82 83 83 81 82 85 87 90 92 87 81 84 93 97 92 85 77 76 79 79 75 71 69 70 72 75 75 70 63 61 61 62
56 55 55 54 56 63 69 75 81 85 84 84 83 77 72 70 68 65 63 61 60 63 68 70 72 75 79 82 83 82 84 84 83 83 83 86 88 90 92 91 84 83 91 97 92 85 82 80 79 80 79 74 70 69 72 75 76 74 68 62 60 60 62
59 59 60 59 62 68 74 78 82 84 85 86 86 81 76 73 71 68 67 67 67 69 71 71 71 75 77 79 82 83 83 83 83 84 86 88 90 89 87 86 86 91 98 96 90 88 86 81 78 79 77 73 69 71 75 78 76 73 70 66 64 65 65
62 63 65 65 67 70 75 79 82 84 86 89 88 84 80 76 73 72 72 72 73 72 72 73 73 74 75 76 79 80 80 80 81 83 86 87 86 83 82 87 94 99 100 98 96 94 85 77 76 77 76 72 72 75 79 81 80 77 74 71 71 71 70
65 68 70 72 73 74 76 81 84 86 87 88 88 85 82 78 75 74 74 74 75 74 74 76 76 75 74 74 76 77 79 81 83 86 88 85 80 79 86 96 100 100 100 98 98 94 83 76 77 78 75 72 74 81 86 85 82 78 76 76 76 76 75
69 71 73 76 78 79 81 84 86 87 87 88 88 84 82 82 77 73 73 74 76 79 81 82 81 78 75 74 77 81 86 89 88 87 88 87 87 89 96 102 100 98 97 96 97 96 88 83 81 76 74 77 84 91 89 84 81 80 81 83 85 82 78
72 73 74 77 80 82 85 88 88 90 93 94 94 88 84 82 78 73 74 75 77 80 84 86 84 80 77 76 79 84 90 90 86 82 84 90 95 98 98 97 98 99 98 98 100 99 94 90 84 78 81 91 94 90 85 84 86 87 88 90 92 88 79
73 74 75 78 82 85 88 90 91 94 96 96 97 95 88 82 78 75 74 75 78 81 84 86 84 81 78 76 77 80 82 79 74 77 87 95 97 98 96 94 95 96 96 96 99 98 93 90 90 91 95 97 91 85 89 95 95 94 94 92 89 87 82
75 76 78 81 84 87 89 90 92 96 97 94 95 98 95 85 79 76 74 74 78 82 83 83 82 81 80 78 79 81 80 77 76 83 92 94 92 91 91 90 90 89 89 91 95 99 97 95 98 100 98 92 90 94 100 101 99 98 98 94 91 91 90
79 80 82 83 85 88 90 91 92 95 97 95 94 97 98 92 84 77 74 75 78 82 83 81 80 80 81 80 79 79 81 84 87 90 89 86 84 85 85 83 81 82 86 89 92 97 100 99 99 100 98 96 98 101 100 100 100 100 99 98 98 99 98
81 83 85 85 87 90 91 92 93 95 97 96 94 95 99 98 92 84 80 80 80 81 81 79 77 77 78 79 77 78 86 89 88 87 87 87 88 87 84 83 84 86 90 92 93 97 100 101 100 100 100 99 99 100 100 100 100 100 100 101 100 98 96
82 84 86 87 90 93 93 94 96 98 97 96 95 95 97 100 99 95 92 90 88 86 81 77 75 74 75 77 75 79 91 95 92 93 96 96 94 90 87 88 89 89 93 97 100 101 100 100 100 100 100 101 101 100 100 100 100 99 99 101 99 94 88
83 84 86 88 91 94 95 95 96 99 99 97 95 95 98 101 100 99 99 97 94 92 87 81 78 76 76 78 79 84 93 94 92 95 98 98 97 96 94 91 86 87 94 97 98 99 100 101 101 99 98 98 97 99 101 100 101 101 100 101 101 94 86
86 86 87 89 90 93 95 94 94 97 99 97 95 96 99 101 100 100 101 99 97 95 92 88 86 84 83 83 84 88 91 91 93 98 99 98 96 94 92 89 88 92 94 90 91 98 100 96 86 76 72 69 72 87 101 102 100 101 101 103 102 95 90
89 88 88 88 89 91 94 95 94 96 98 97 95 96 99 100 100 100 100 100 100 99 96 94 94 95 94 91 90 91 91 94 98 101 98 94 93 93 94 95 94 93 92 93 97 97 88 75 63 56 54 54 57 71 85 90 94 101 102 102 102 96 93
89 89 88 88 90 92 94 95 94 94 97 98 95 95 98 100 100 100 100 100 100 100 100 98 97 97 98 98 95 93 95 99 98 96 95 96 97 98 98 97 95 96 99 100 93 82 70 60 55 52 54 59 62 67 74 81 91 101 103 101 102 98 95
90 89 89 89 91 92 93 95 95 94 96 98 96 94 96 100 100 98 98 100 100 99 100 100 97 96 97 98 95 93 98 99 91 87 94 100 100 99 97 97 100 101 97 87 75 66 61 55 53 56 61 68 71 71 75 81 87 96 102 102 102 100 98
91 92 91 92 93 93 93 94 95 95 95 96 97 95 94 98 101 96 94 98 101 100 98 96 96 94 92 94 97 99 98 93 86 89 99 101 98 97 98 101 100 92 81 72 66 64 61 59 65 76 81 80 76 71 73 79 84 91 99 102 102 102 102
94 94 95 95 96 96 95 93 95 97 96 95 96 96 93 95 100 97 92 94 97 97 94 93 92 90 90 96 100 96 89 89 93 99 101 99 98 101 100 95 85 74 69 69 67 69 74 78 85 93 92 85 79 72 72 79 85 91 97 101 102 102 102
96 97 97 97 98 98 97 95 94 96 98 96 96 97 95 93 98 100 94 91 91 90 88 89 89 89 93 98 96 91 91 97 101 99 97 99 102 98 90 79 70 66 69 73 75 84 94 94 91 93 92 86 79 75 74 80 86 91 97 99 100 102 103
97 98 97 97 98 99 98 97 95 94 97 99 97 97 95 92 96 101 97 91 90 88 86 87 88 91 97 97 93 95 100 99 95 96 100 102 95 84 75 69 65 67 74 82 89 97 101 96 89 86 84 79 75 74 74 80 88 93 95 95 95 97 98
97 98 98 96 96 97 97 99 98 94 93 96 99 99 96 92 94 99 97 92 90 91 91 92 94 96 99 98 96 99 99 92 88 93 94 85 75 72 69 66 67 75 84 93 99 100 97 92 85 77 72 70 71 72 73 80 93 98 95 92 94 97 94
97 97 97 96 96 96 97 98 99 97 93 93 98 100 96 93 94 97 98 97 95 97 98 99 99 100 100 99 100 97 88 77 73 73 71 68 69 71 69 67 76 86 90 91 91 89 85 82 77 73 70 69 71 74 73 81 94 99 94 92 94 96 94
96 96 95 95 95 96 98 99 99 97 92 90 95 99 96 94 96 97 99 100 100 100 100 99 100 101 99 100 98 88 71 60 58 61 66 70 73 73 69 68 73 77 73 70 70 74 78 79 76 74 74 75 77 76 75 81 91 92 89 90 92 93 94
95 94 92 93 94 94 98 99 95 92 88 85 91 98 94 90 94 99 100 100 99 99 100 100 100 100 99 97 89 74 61 59 64 69 74 74 72 71 69 65 65 65 61 58 63 74 84 86 81 75 76 81 83 77 75 83 90 87 85 89 92 92 93
96 94 92 93 93 91 92 89 84 87 92 91 93 99 95 87 92 99 101 100 98 97 98 101 100 98 97 91 77 63 59 65 71 73 74 74 72 70 66 63 65 66 60 56 63 78 87 87 83 79 79 85 88 83 78 81 86 86 85 89 91 91 92
99 98 96 95 94 91 90 88 84 90 99 98 95 98 98 93 96 101 100 99 98 98 99 100 96 90 85 76 65 57 59 66 71 71 71 73 72 68 62 63 67 65 57 54 63 75 81 83 82 80 81 85 89 88 83 82 85 86 85 85 87 91 94
100 100 98 98 97 92 91 93 95 96 99 99 96 97 97 96 97 101 100 98 97 96 97 95 88 79 71 65 60 57 60 66 69 68 68 70 68 63 61 65 68 63 54 53 61 69 76 80 79 78 80 84 87 89 87 85 88 89 86 84 85 90 94
94 97 98 100 100 95 91 94 98 97 97 99 98 96 96 96 97 100 101 99 97 97 95 90 81 71 63 59 57 57 62 68 69 66 66 65 60 58 61 67 67 59 51 50 54 61 68 74 75 75 78 80 83 88 89 88 89 91 89 86 87 88 90
86 90 95 97 99 99 96 96 98 97 96 97 98 96 94 94 96 99 100 98 97 96 94 89 80 69 61 58 55 56 63 71 71 67 65 63 58 57 61 64 60 52 46 45 46 51 59 67 70 73 78 81 83 87 88 88 90 92 91 90 89 89 85
86 86 89 93 97 100 99 98 97 95 93 94 95 94 93 93 96 99 100 99 97 95 93 89 80 67 58 54 53 55 62 68 68 66 64 61 58 58 60 59 54 47 44 43 42 46 54 61 65 69 74 79 84 88 91 91 91 91 92 91 90 89 84
92 86 84 89 96 99 99 98 96 93 91 91 93 92 93 95 99 100 100 101 99 95 90 86 75 60 51 49 49 54 61 63 63 64 65 61 58 56 55 53 49 45 44 42 41 44 49 53 58 63 68 73 80 85 89 91 91 90 90 89 88 87 85
Wind_Speed
31 33 34 35 37 38 39 40 38 34 32 30 31 33 34 32 30 28 26 26 25 25 25 25 27 27 26 24 23 23 21 20 20 19 17 17 16 15 15 17 16 13 14 21 25 26 29 31 32 37 39 36 37 37 33 32 34 33 33 32 32 32 31
31 33 34 35 37 38 40 40 36 32 32 31 32 34 34 32 31 29 27 26 25 26 26 25 27 27 26 25 24 23 22 21 21 20 19 19 18 18 18 18 20 19 15 18 25 28 30 32 32 36 41 37 32 34 34 34 35 33 31 30 31 33 34
31 32 33 35 37 38 39 39 34 31 32 32 32 34 35 33 32 31 29 27 27 26 25 26 27 27 25 24 24 24 23 23 23 22 22 22 21 21 21 20 21 21 16 17 23 25 26 30 31 33 38 35 31 33 34 34 34 31 29 31 33 35 35
30 31 32 34 36 37 38 37 34 32 33 32 32 35 36 34 32 31 29 29 29 27 26 27 27 27 25 24 24 24 24 24 24 24 24 24 23 22 22 22 21 22 24 21 19 22 27 30 31 31 33 33 32 33 32 31 31 29 30 35 35 34 33
29 30 31 33 36 38 38 38 35 33 33 32 33 36 36 33 32 31 29 29 29 28 28 28 28 28 25 24 25 25 25 25 25 25 24 24 23 22 22 22 22 24 27 22 18 25 31 31 30 30 30 30 30 31 30 29 28 28 31 35 33 31 31
29 30 31 33 36 36 37 37 36 34 33 32 33 35 34 32 30 30 29 29 29 28 28 28 29 28 26 25 26 26 26 25 25 25 25 24 23 22 22 23 23 25 26 24 25 27 28 28 28 28 29 28 26 27 28 28 29 29 30 32 32 31 30
29 30 31 33 35 34 34 34 34 33 32 32 33 33 33 31 30 29 28 28 28 27 26 27 28 28 27 27 27 27 26 25 25 24 25 25 24 24 25 24 25 25 22 23 24 21 22 26 27 26 28 28 26 25 26 26 28 28 27 29 30 31 32
30 29 29 31 33 33 32 32 32 32 32 32 33 33 32 31 30 28 27 26 26 26 26 27 28 28 28 28 28 28 26 25 25 25 25 26 25 26 26 24 24 22 18 16 16 17 23 28 27 25 26 26 25 22 20 22 25 27 29 30 30 30 33
29 28 28 29 30 31 31 31 31 31 32 33 33 33 32 31 30 29 27 26 25 25 26 27 28 29 29 28 28 27 26 25 25 25 26 27 27 28 26 23 21 20 16 14 13 16 23 25 23 24 24 24 23 19 19 24 28 29 31 33 34 34 32
28 28 28 28 28 29 30 31 32 33 33 33 33 33 31 30 30 30 28 26 25 25 25 27 28 28 28 28 27 25 23 22 22 23 25 26 27 26 23 20 19 18 18 16 13 14 19 18 18 23 24 22 22 22 24 26 27 29 31 29 29 31 27
28 28 28 27 27 28 30 31 33 32 30 30 30 32 32 30 31 31 29 27 25 24 24 24 26 27 27 27 26 24 21 20 21 22 23 24 23 22 20 19 18 18 18 16 11 11 14 15 17 24 24 21 23 28 29 27 26 27 28 21 15 17 19
28 28 28 27 27 29 30 31 31 29 28 29 29 30 32 32 32 32 30 27 25 24 22 22 23 25 26 25 25 23 21 20 20 21 21 22 21 21 21 21 21 20 20 18 14 13 17 19 20 23 23 22 27 32 29 25 24 24 24 21 14 14 20
28 28 28 28 28 29 30 30 29 28 28 30 29 29 30 32 32 32 32 29 26 24 23 22 22 23 23 23 22 20 18 17 18 19 20 21 22 23 23 23 23 24 24 23 21 20 23 24 23 24 27 30 33 33 27 22 23 24 24 25 21 20 27
28 28 28 29 29 28 28 28 29 28 28 29 29 29 29 30 30 30 31 29 27 25 24 23 23 23 22 22 20 18 16 16 18 19 21 23 24 25 25 25 25 24 24 24 25 25 27 28 27 29 34 35 33 31 27 24 26 26 25 27 28 29 34
27 28 28 28 27 26 26 27 28 27 28 28 28 28 28 27 28 28 28 27 27 26 25 24 24 24 23 22 20 17 16 15 17 19 21 22 23 23 24 24 24 24 24 24 25 25 27 28 29 30 32 32 29 28 29 29 30 31 30 32 33 31 32
26 27 26 26 25 25 25 26 26 25 27 28 27 28 28 25 25 26 26 25 25 25 25 24 24 23 23 22 20 17 15 14 15 17 18 19 21 22 23 23 23 22 22 22 23 25 27 28 28 28 29 30 30 29 30 31 31 31 29 26 22 20 23
25 25 25 24 24 25 25 26 25 25 26 27 27 28 27 24 23 23 24 24 24 24 24 23 23 23 22 21 20 17 14 13 14 15 16 18 19 19 20 23 24 22 22 23 24 25 26 26 27 29 30 30 29 26 26 26 25 24 22 15 10 10 15
23 23 23 23 24 26 26 25 25 24 24 26 26 26 26 23 21 21 22 22 22 22 23 23 22 22 22 21 19 16 14 13 13 14 15 15 16 18 21 22 22 22 24 25 26 26 27 29 30 30 29 28 26 23 21 21 22 22 19 12 7 8 12
21 21 22 23 24 25 24 24 23 22 23 25 25 25 25 24 21 20 21 21 20 20 22 22 20 20 20 19 16 14 12 11 11 11 13 15 16 18 19 20 20 22 22 23 26 28 30 32 30 28 26 24 23 20 17 17 20 22 20 15 11 11 11
20 21 21 22 23 22 22 22 22 22 23 24 25 25 25 24 22 20 20 21 21 20 20 21 21 20 19 16 14 12 10 9 9 10 13 14 14 13 15 18 18 18 19 22 27 30 30 31 28 25 23 21 20 18 16 16 18 19 21 21 19 17 12
18 20 20 21 21 21 21 22 22 22 22 23 24 25 25 25 23 22 21 21 22 22 22 22 22 22 20 15 12 11 9 8 9 10 10 10 10 11 14 16 16 18 21 25 28 28 28 28 26 24 22 22 21 21 19 19 20 20 22 24 23 22 16
17 18 18 18 19 19 20 21 22 22 22 22 23 23 24 25 24 24 24 22 21 22 22 22 22 21 19 14 11 9 8 7 7 8 9 8 9 10 12 14 18 21 23 23 24 25 26 26 24 24 24 24 24 23 22 21 22 22 23 24 26 25 21
16 16 15 15 16 18 20 21 21 22 22 22 21 21 23 23 23 25 26 25 23 23 23 22 20 18 15 12 10 8 7 6 6 8 9 7 7 9 12 16 18 19 19 20 21 22 23 23 23 24 25 26 26 26 24 23 23 23 24 25 26 26 26
14 14 13 13 14 16 18 20 21 21 21 21 20 20 21 22 22 24 27 27 25 24 23 21 19 16 13 11 8 7 7 7 6 6 5 3 5 11 13 14 15 15 16 18 19 19 20 21 23 24 25 27 27 25 24 23 23 23 23 23 24 24 23
12 13 12 12 12 14 17 19 20 21 20 19 19 19 20 21 21 24 26 26 24 23 22 20 17 14 13 11 9 10 10 8 5 3 2 3 7 11 11 11 12 13 14 15 16 17 19 21 22 23 23 23 23 23 23 23 24 23 23 23 23 22 18
11 11 11 11 12 13 16 17 19 20 20 19 19 18 19 20 21 23 25 24 23 22 20 18 16 15 14 13 12 12 11 8 6 5 4 5 7 7 7 9 10 11 11 13 14 16 19 20 22 22 21 21 21 22 23 24 24 24 23 24 24 22 18
10 10 9 10 11 13 15 16 18 19 21 21 20 19 19 19 20 22 24 23 21 20 19 19 18 17 15 14 12 10 9 8 7 6 5 5 4 4 5 7 7 8 9 11 13 16 18 19 20 21 22 22 22 22 23 23 22 21 22 24 23 19 17
11 12 12 12 12 12 12 13 16 20 23 24 23 21 21 20 18 19 24 25 23 23 24 22 20 18 16 15 13 10 8 8 7 5 4 3 2 2 4 4 4 6 7 10 12 15 17 19 20 22 23 24 23 23 23 23 21 20 22 24 21 15 13
15 16 17 16 16 15 12 12 17 23 25 26 24 22 23 23 19 18 24 28 28 28 27 24 21 20 18 16 14 11 10 9 7 6 5 3 1 1 3 4 5 7 9 10 12 15 17 19 21 22 23 24 23 23 23 22 21 21 21 22 18 13 13
16 17 18 18 19 20 17 17 21 23 22 22 22 22 23 23 21 19 25 31 31 29 27 23 20 19 19 17 15 13 12 11 9 8 6 4 2 2 3 5 6 9 10 10 12 14 16 18 20 22 23 24 23 24 24 23 21 20 19 19 17 14 14
14 15 16 17 18 19 19 18 18 19 20 21 22 22 22 22 20 21 27 32 31 27 25 22 19 17 17 17 16 14 13 13 11 9 7 5 4 4 4 5 7 9 10 11 12 14 16 17 19 20 21 22 22 22 23 23 22 21 19 19 18 14 12
11 11 13 15 16 16 16 15 15 17 19 21 21 22 23 23 22 24 28 31 29 24 21 20 19 17 17 17 16 15 15 14 12 10 8 6 5 5 4 5 7 8 9 11 13 15 17 18 20 20 19 20 21 20 21 23 23 22 20 19 18 15 13
8 8 8 11 15 16 15 14 16 17 19 21 21 22 23 23 24 26 28 29 26 22 19 19 18 18 19 18 17 17 16 15 13 11 9 7 6 5 5 5 6 6 8 11 13 15 17 18 19 20 20 20 21 20 19 20 22 22 20 18 17 16 16
7 6 6 7 11 17 16 15 16 17 19 20 21 22 23 24 24 25 28 28 25 22 21 20 18 18 19 19 19 19 18 16 14 12 10 8 7 6 5 4 4 5 8 11 12 14 17 18 19 20 21 21 21 21 20 20 21 22 20 19 17 15 16
10 7 5 5 8 14 18 17 16 17 19 20 21 22 24 25 23 22 23 24 23 23 23 22 21 20 21 21 20 20 20 18 16 13 10 9 8 6 5 4 4 6 8 10 12 14 16 18 19 20 20 20 19 20 21 20 21 21 19 19 19 16 16
9 10 6 4 6 12 19 18 16 17 18 19 21 23 24 23 19 17 18 21 21 22 22 22 22 22 22 23 22 22 20 19 16 14 12 10 9 7 6 5 5 6 7 8 11 13 15 17 19 20 21 20 20 20 20 20 20 21 19 19 20 17 17
Wind_Direction
231 227 224 222 220 218 216 215 215 215 212 208 211 216 218 217 216 216 218 222 226 229 231 231 232 231 229 226 224 225 228 228 232 237 242 247 252 252 257 269 275 279 288 287 286 290 293 295 301 303 301 301 300 300 300 299 297 296 296 294 295 296 296
232 228 225 224 221 218 217 216 214 212 210 209 211 214 215 215 215 215 215 218 224 228 229 229 231 232 229 226 226 227 229 231 233 235 238 242 246 253 259 265 272 276 281 286 289 291 292 295 300 301 301 300 298 298 300 299 297 296 295 294 296 297 296
233 229 227 225 222 219 218 216 213 211 210 209 209 211 213 214 215 214 213 217 223 226 226 226 229 231 229 226 227 230 232 235 236 236 240 245 249 255 261 265 267 269 274 284 290 290 291 298 302 299 298 298 296 297 298 296 295 295 293 295 298 298 295
234 231 228 224 220 218 217 215 214 214 214 212 210 211 212 213 214 214 215 219 222 223 223 224 227 230 230 228 229 233 235 236 237 240 243 248 252 256 262 267 266 266 272 279 285 288 291 298 301 295 293 295 297 297 295 293 292 292 294 298 300 298 295
234 231 227 223 220 219 218 217 217 217 216 214 212 212 212 212 213 215 217 220 222 223 223 223 227 230 230 230 232 234 236 236 238 243 247 251 254 258 263 267 267 268 272 275 281 287 291 296 296 291 289 293 296 297 296 294 292 293 298 300 300 298 296
234 231 228 224 221 219 219 219 219 217 217 216 214 212 212 212 213 215 218 221 222 224 224 224 228 230 229 230 232 233 234 237 241 246 250 253 256 263 267 266 268 270 270 271 276 282 288 295 295 290 289 292 295 296 297 298 297 297 299 301 302 300 298
233 230 227 223 220 218 218 218 218 218 218 218 215 212 211 212 213 214 217 220 222 223 225 228 230 231 230 231 233 235 237 240 246 249 253 257 261 266 266 262 264 265 263 267 273 277 286 293 292 288 288 292 296 295 293 299 304 303 302 303 301 299 299
232 228 224 221 218 218 218 217 216 217 217 217 216 213 211 212 212 212 214 217 220 223 225 229 232 233 234 235 236 239 242 245 250 253 256 261 264 264 260 259 261 261 259 262 266 273 286 291 289 287 288 293 297 295 293 302 307 304 303 304 301 296 298
232 227 222 219 218 218 217 216 216 215 215 216 215 213 212 212 212 212 212 214 218 223 226 229 232 234 236 238 239 242 245 248 252 255 258 262 263 259 256 257 260 259 257 259 260 271 283 288 286 287 291 293 294 295 301 308 306 298 298 301 298 294 295
230 225 222 219 217 218 217 217 218 217 217 216 215 214 212 210 212 213 212 213 216 221 226 229 231 234 236 238 240 241 242 246 251 255 257 259 259 256 254 255 260 261 260 260 259 263 274 282 284 285 288 289 292 298 304 306 302 296 297 298 297 296 297
228 226 224 221 219 218 217 218 218 217 215 214 212 213 211 210 212 214 212 213 215 218 224 228 230 233 235 236 238 238 238 244 252 257 259 261 263 264 264 265 267 267 265 264 259 259 270 280 282 284 286 288 295 302 301 296 291 292 296 297 296 299 302
229 228 226 222 220 218 218 219 219 215 214 215 212 211 212 213 213 213 213 213 215 218 221 224 227 231 234 236 237 239 242 249 254 256 260 265 270 273 273 274 273 274 277 278 276 277 277 279 282 287 291 294 298 299 294 285 284 288 292 292 288 289 292
229 227 224 221 219 219 220 221 220 217 216 217 215 210 210 213 214 215 216 215 215 217 219 221 223 226 231 235 236 238 243 251 254 255 260 268 273 275 274 274 274 274 278 279 281 283 280 279 287 292 293 294 294 291 285 280 285 289 288 287 285 285 289
228 225 223 221 220 220 221 222 222 220 217 217 216 212 209 211 212 214 218 218 217 218 220 221 221 223 229 233 234 234 236 244 250 256 265 271 273 275 276 277 278 276 277 277 278 278 278 280 286 288 288 291 290 285 283 286 292 293 291 288 286 285 288
227 225 223 222 221 220 222 223 222 219 218 217 216 213 210 208 208 211 215 217 218 220 221 221 221 224 228 230 233 235 234 241 252 259 267 271 273 278 279 280 280 280 280 280 274 272 277 284 287 286 287 293 295 292 291 292 292 292 292 291 289 287 288
228 226 224 223 221 219 221 224 220 216 218 218 215 214 212 207 204 205 209 212 216 218 219 219 221 224 227 229 233 236 233 239 253 260 266 272 275 278 279 279 283 282 280 279 277 279 287 290 290 291 292 296 300 297 295 295 291 289 290 289 290 291 291
229 227 225 222 219 218 220 223 220 216 217 217 215 213 211 206 202 201 203 208 212 214 216 218 221 223 224 227 233 237 234 238 252 261 266 270 271 274 276 279 283 282 277 280 283 287 290 290 291 295 296 296 296 295 297 297 290 288 292 290 288 293 294
229 226 225 222 220 218 219 222 221 217 216 217 215 212 208 204 200 199 200 204 208 212 215 218 220 222 224 229 234 236 235 239 250 257 261 270 275 277 277 277 282 286 287 289 290 289 289 291 295 298 297 293 293 295 296 292 286 290 294 284 268 288 299
227 224 223 223 223 220 219 221 222 218 217 217 215 212 207 201 198 195 196 199 202 205 210 214 214 214 220 228 231 230 233 240 249 257 264 272 273 272 274 282 291 296 296 295 296 296 299 302 304 305 302 298 299 300 296 288 287 289 287 278 274 284 295
224 222 222 222 222 220 218 221 222 219 217 216 215 213 206 200 198 194 190 192 195 195 199 207 211 211 215 222 224 225 235 244 251 261 266 263 260 268 287 298 297 294 296 299 302 304 307 309 310 311 310 312 313 314 312 305 298 290 281 279 280 279 277
222 219 221 221 220 219 218 220 223 220 218 216 216 214 207 201 199 196 190 190 193 193 195 202 209 214 216 219 222 226 236 247 255 261 259 253 264 289 300 298 292 293 299 303 306 308 310 312 316 319 321 324 325 325 326 320 310 299 287 280 276 275 275
218 215 218 219 218 218 217 219 221 220 218 217 216 215 211 206 200 196 195 192 190 195 202 206 212 218 219 215 210 215 230 245 249 246 244 259 290 300 291 286 290 298 303 306 310 313 315 319 324 326 327 329 330 331 332 326 317 308 298 288 280 276 273
213 210 212 214 215 216 216 217 218 217 216 218 218 217 217 213 201 194 197 198 196 200 208 211 215 220 214 201 198 212 229 230 223 232 247 274 296 283 277 285 295 303 309 312 316 319 320 324 329 329 329 332 334 333 332 328 322 315 307 301 295 287 279
208 204 204 208 211 212 212 214 216 216 214 216 217 218 220 218 204 193 196 202 205 207 212 213 214 212 198 187 193 204 201 193 203 233 254 275 272 271 280 295 305 313 317 318 323 326 324 326 332 332 331 333 333 332 332 330 326 321 315 310 308 304 297
204 203 204 205 205 206 207 208 211 213 213 213 215 216 218 218 207 194 194 201 206 209 214 213 205 192 179 176 181 185 187 196 208 210 195 230 265 280 295 308 316 324 327 325 328 329 326 327 334 336 336 337 336 337 339 337 332 329 328 327 326 325 320
208 205 206 206 204 204 203 201 202 208 211 210 210 212 215 217 208 193 191 200 206 207 205 196 181 172 169 171 179 189 197 205 201 187 203 250 274 290 309 321 327 332 334 330 331 332 331 333 338 342 345 347 346 346 346 344 337 331 333 339 340 337 334
219 210 205 207 205 200 198 195 194 199 204 205 205 206 208 213 210 193 183 187 193 187 176 166 161 162 164 165 172 186 193 190 190 199 224 254 275 297 322 339 340 333 335 342 343 340 338 340 346 352 356 357 354 351 351 350 344 336 336 342 343 338 336
215 213 211 208 201 194 191 189 189 195 201 201 199 198 198 203 207 191 175 172 169 162 157 156 155 156 160 164 167 170 170 173 183 197 209 220 245 314 341 355 352 341 347 356 355 349 347 350 355 360 1 359 356 354 355 356 351 345 343 346 347 344 342
219 218 216 210 202 194 182 181 195 203 205 202 196 193 193 196 197 185 171 168 166 159 154 155 156 157 163 168 167 162 161 165 172 176 179 188 196 21 15 15 11 6 6 6 3 360 356 356 359 3 2 360 356 355 358 360 355 351 350 349 348 348 349
234 231 225 215 209 205 200 204 211 208 202 196 193 190 189 191 191 182 170 166 166 162 156 155 157 161 167 170 168 166 166 169 173 174 170 167 151 91 52 34 23 17 16 14 11 9 5 3 5 6 3 358 353 352 358 3 0 357 355 352 350 351 353
247 241 231 221 217 213 211 215 213 201 190 190 191 188 185 183 181 174 167 166 164 160 156 157 159 164 171 175 174 172 171 172 175 174 170 163 135 92 62 43 32 23 19 19 19 17 15 14 13 10 4 359 353 350 355 2 5 4 2 358 355 351 343
260 253 235 221 214 210 208 205 197 190 188 189 189 188 184 179 174 167 165 169 169 161 157 162 164 165 172 174 173 173 173 174 175 172 169 164 135 100 74 49 39 30 23 25 25 23 22 20 18 15 9 3 359 354 355 0 4 5 3 358 356 352 345
274 275 260 230 208 199 200 198 190 188 189 186 186 186 183 179 175 168 166 170 171 161 158 166 169 169 175 177 174 173 173 171 172 171 167 160 137 109 87 65 47 35 32 33 32 30 29 26 22 18 14 10 6 3 1 3 5 5 4 1 357 354 352
301 299 295 260 213 193 188 187 186 187 188 186 184 184 180 176 175 173 172 176 177 169 164 169 171 173 177 178 174 173 172 169 169 169 165 155 138 117 101 85 62 44 41 39 37 37 35 32 29 25 19 12 9 7 7 8 8 8 8 4 358 352 352
321 324 317 282 232 194 181 180 181 184 187 185 182 181 177 173 174 175 172 172 177 176 173 174 176 177 179 178 175 174 174 172 169 167 164 155 143 131 119 104 74 52 46 42 40 41 40 36 34 32 27 20 14 10 8 8 7 9 10 6 0 356 353
319 326 319 276 232 194 179 175 177 181 184 184 182 180 175 172 175 174 161 157 167 176 177 179 182 182 179 178 177 176 175 173 169 166 163 158 150 143 133 116 87 61 51 47 44 44 43 41 39 35 31 27 22 15 12 10 8 10 13 11 7 4 359